Tracking 18647 objects as of 28-May-2017
HD Live streaming from Space Station
objects crossing your sky now

SECOR 3

Track SECOR 3 now!
10-day predictions
SECOR 3 is classified as:


NORAD ID: 1208
Int'l Code: 1965-016E
Perigee: 903.3 km
Apogee: 929.6 km
Inclination: 70.1 °
Period: 103.2 minutes
Semi major axis: 7287 km
RCS: 0.2205 m2 (medium)
Launch date: March 9, 1965
Source: United States (US)
Launch site: AIR FORCE WESTERN TEST RANGE (AFWTR)
Your satellite tracking list
Your tracking list is empty





NASA's NSSDC Master Catalog

Two Line Element Set (TLE):
1  1208U 65016E   17147.09905086 -.00000018 +00000-0 +25069-4 0  9992
2  1208 070.0805 025.7062 0018040 117.6310 045.6080 13.95538123657626
Source of the keplerian elements: AFSPC